Regional Weather Roundup
Issued by NWS

Home | Current Version | Previous Version | Graphics & Text | Print | Product List | Glossary On
Versions: 1 2 3 4 5 6 7 8 9 10 11 12 13 14 15 16 17 18 19 20 21 22 23 24 25 26 27 28 29 30 31 32 33 34 35 36 37 38 39 40 41 42 43 44 45 46 47 48 49 50
000
ASUS43 KFSD 252102
RWRSD

WEATHER ROUNDUP FOR SOUTH DAKOTA
NATIONAL WEATHER SERVICE SIOUX FALLS SD
300 PM CST SUN FEB 25 2018

NOTE: "FAIR" INDICATES FEW OR NO CLOUDS BELOW 12,000 FEET WITH NO
SIGNIFICANT WEATHER AND/OR OBSTRUCTIONS TO VISIBILITY.


SDZ001>005-009-010-012>017-252200-
NORTHWEST AND NORTH CENTRAL SOUTH DAKOTA

CITY           SKY/WX    TMP DP  RH WIND       PRES   REMARKS
BUFFALO          N/A     28  18  66 W18       29.65R WCI  15
FAITH            N/A     30  21  69 SW12      29.76R WCI  20
MOBRIDGE       SUNNY     31  19  61 SW8       29.75R WCI  23
$$

SDZ012>016-024>037-041>051-057-063-072>074-252200-
SOUTHWEST AND SOUTH CENTRAL SOUTH DAKOTA

CITY           SKY/WX    TMP DP  RH WIND       PRES   REMARKS
RAPID CTY ARPT SUNNY     31  22  69 SE6       29.77S WCI  25
PIERRE         SUNNY     31  18  58 W16       29.83R WCI  20
CUSTER         SUNNY     24   3  40 W13G21    29.71R WCI  12
ELLSWORTH AFB  SUNNY     33  20  58 SE15      29.76S WCI  22
PHILIP         SUNNY     32  21  64 SW14      29.83S WCI  22
PINE RIDGE     SUNNY    N/A N/A N/A MISG      29.84F
SPEARFISH        N/A     32   5  32 W15G23    29.73S WCI  22
WINNER         FAIR      35  21  56 SW12      29.86S WCI  27
$$

SDZ004>011-016>023-039-040-252200-
NORTHEAST SOUTH DAKOTA

CITY           SKY/WX    TMP DP  RH WIND       PRES   REMARKS
ABERDEEN       SUNNY     29  19  66 W15       29.80R WCI  18
WATERTOWN      SUNNY     25  19  78 SW18      29.79R WCI  11
BROOKINGS      SUNNY     29  20  69 SW14      29.84R WCI  18
SISSETON         N/A     29  20  69 W18G26    29.75R WCI  16
$$

SDZ017-020-022-023-036>040-048>070-252200-
SOUTHEAST SOUTH DAKOTA

CITY           SKY/WX    TMP DP  RH WIND       PRES   REMARKS
SIOUX FALLS    MOSUNNY   32  19  58 W8        29.90R WCI  25
HURON          SUNNY     29  20  69 SW10      29.86R WCI  20
CHAMBERLAIN    SUNNY     36  21  55 SW8       29.87S
MITCHELL       SUNNY     32  20  61 W9        29.90R WCI  24
YANKTON        SUNNY     38  20  48 W10       29.92R
$$

ABBREVIATIONS USED IN REMARKS
   TC - TEMPERATURE IN CELSIUS
  WCI - WIND CHILL INDEX
   HX - HEAT INDEX
  VSB - VISIBILITY




USA.gov is the U.S. government's official web portal to all federal, state and local government web resources and services.